QPF
0.01 0.01 0.02 0.02 0.03 0.03 0.04 0.03 0.02 0.03 0.04 0.03 0.01 0.01 0.00 0.00 0.00 0.00 0.01 0.01 0.02 0.01 0.01 0.02 0.05 0.06 0.07 0.09 0.06 0.05 0.05 0.04 0.03 0.04 0.04 0.07 0.10 0.14 0.11 0.09 0.09 0.07 0.05 0.04 0.05 0.06 0.05 0.05 0.04
0.02 0.02 0.03 0.03 0.03 0.05 0.04 0.03 0.03 0.03 0.03 0.02 0.01 0.01 0.00 0.00 0.00 0.01 0.01 0.02 0.01 0.00 0.01 0.01 0.04 0.05 0.07 0.10 0.07 0.06 0.06 0.06 0.05 0.05 0.06 0.05 0.07 0.07 0.06 0.06 0.06 0.04 0.05 0.05 0.05 0.06 0.06 0.06 0.05
0.01 0.02 0.02 0.02 0.02 0.02 0.02 0.02 0.03 0.04 0.03 0.02 0.02 0.01 0.00 0.01 0.01 0.01 0.01 0.01 0.01 0.00 0.01 0.02 0.03 0.06 0.06 0.08 0.08 0.05 0.06 0.07 0.07 0.07 0.06 0.04 0.05 0.06 0.06 0.05 0.04 0.04 0.05 0.06 0.05 0.05 0.06 0.07 0.06
0.03 0.03 0.02 0.02 0.02 0.01 0.02 0.02 0.03 0.03 0.01 0.01 0.02 0.02 0.01 0.01 0.01 0.02 0.02 0.01 0.00 0.00 0.01 0.02 0.03 0.05 0.08 0.08 0.09 0.08 0.07 0.08 0.07 0.06 0.05 0.05 0.05 0.05 0.05 0.04 0.04 0.05 0.06 0.07 0.06 0.04 0.04 0.05 0.05
0.04 0.02 0.02 0.03 0.02 0.02 0.02 0.02 0.02 0.01 0.01 0.01 0.02 0.02 0.02 0.02 0.01 0.01 0.02 0.01 0.01 0.01 0.01 0.02 0.03 0.03 0.05 0.06 0.07 0.09 0.07 0.07 0.05 0.05 0.05 0.05 0.04 0.05 0.05 0.05 0.05 0.06 0.06 0.06 0.06 0.05 0.05 0.05 0.04
0.04 0.03 0.02 0.04 0.03 0.03 0.03 0.02 0.01 0.01 0.01 0.01 0.01 0.01 0.02 0.02 0.01 0.01 0.02 0.02 0.01 0.00 0.01 0.02 0.03 0.03 0.03 0.04 0.05 0.07 0.06 0.06 0.06 0.05 0.05 0.06 0.07 0.07 0.09 0.08 0.06 0.06 0.07 0.07 0.06 0.06 0.06 0.05 0.04
0.03 0.03 0.03 0.02 0.02 0.03 0.04 0.02 0.01 0.01 0.02 0.03 0.01 0.01 0.02 0.03 0.01 0.00 0.01 0.01 0.01 0.00 0.00 0.01 0.02 0.02 0.02 0.03 0.05 0.06 0.07 0.08 0.08 0.06 0.05 0.05 0.06 0.09 0.11 0.09 0.07 0.07 0.09 0.09 0.07 0.07 0.07 0.05 0.03
0.03 0.03 0.02 0.02 0.03 0.03 0.04 0.03 0.02 0.01 0.01 0.02 0.01 0.02 0.02 0.03 0.01 0.01 0.01 0.01 0.01 0.01 0.01 0.01 0.01 0.02 0.02 0.03 0.05 0.07 0.08 0.09 0.09 0.09 0.07 0.07 0.06 0.07 0.08 0.08 0.09 0.09 0.10 0.10 0.09 0.09 0.08 0.07 0.06
0.03 0.04 0.03 0.03 0.03 0.04 0.05 0.05 0.03 0.01 0.01 0.01 0.01 0.01 0.03 0.04 0.02 0.01 0.02 0.02 0.01 0.01 0.02 0.01 0.01 0.01 0.01 0.02 0.04 0.06 0.07 0.07 0.07 0.06 0.06 0.06 0.05 0.05 0.06 0.08 0.09 0.11 0.12 0.13 0.14 0.12 0.10 0.09 0.08
0.02 0.04 0.05 0.03 0.02 0.03 0.03 0.05 0.04 0.02 0.01 0.01 0.01 0.01 0.02 0.04 0.02 0.02 0.04 0.03 0.02 0.01 0.01 0.01 0.00 0.00 0.01 0.01 0.02 0.03 0.04 0.05 0.04 0.03 0.04 0.03 0.04 0.04 0.06 0.08 0.12 0.15 0.18 0.19 0.15 0.13 0.11 0.10 0.08
0.02 0.03 0.02 0.02 0.02 0.01 0.03 0.04 0.05 0.03 0.02 0.01 0.01 0.01 0.02 0.03 0.03 0.04 0.04 0.03 0.01 0.01 0.02 0.02 0.01 0.00 0.01 0.01 0.02 0.02 0.03 0.03 0.03 0.04 0.04 0.05 0.06 0.08 0.10 0.11 0.11 0.14 0.19 0.15 0.13 0.12 0.08 0.07 0.05
0.01 0.01 0.01 0.01 0.01 0.01 0.02 0.03 0.06 0.04 0.02 0.01 0.01 0.00 0.01 0.02 0.02 0.02 0.03 0.02 0.01 0.01 0.02 0.01 0.00 0.00 0.00 0.01 0.01 0.02 0.02 0.03 0.03 0.05 0.05 0.05 0.08 0.09 0.09 0.08 0.07 0.07 0.08 0.07 0.07 0.07 0.05 0.05 0.05
0.01 0.00 0.00 0.00 0.01 0.01 0.03 0.04 0.06 0.05 0.02 0.01 0.01 0.01 0.01 0.01 0.01 0.02 0.02 0.01 0.02 0.02 0.01 0.00 0.00 0.00 0.01 0.01 0.01 0.01 0.01 0.01 0.01 0.02 0.03 0.03 0.04 0.04 0.04 0.04 0.04 0.03 0.04 0.06 0.07 0.06 0.05 0.05 0.04
0.00 0.00 0.00 0.00 0.01 0.01 0.03 0.03 0.04 0.06 0.03 0.01 0.02 0.03 0.02 0.01 0.01 0.01 0.01 0.02 0.03 0.03 0.01 0.00 0.00 0.01 0.02 0.02 0.02 0.03 0.03 0.02 0.01 0.01 0.02 0.02 0.03 0.04 0.04 0.04 0.04 0.04 0.04 0.05 0.05 0.04 0.04 0.07 0.06
0.00 0.00 0.00 0.00 0.01 0.02 0.02 0.03 0.03 0.05 0.05 0.02 0.02 0.02 0.02 0.01 0.01 0.00 0.01 0.01 0.02 0.01 0.01 0.00 0.01 0.01 0.01 0.01 0.01 0.01 0.03 0.04 0.03 0.02 0.01 0.01 0.02 0.02 0.02 0.02 0.02 0.02 0.02 0.02 0.03 0.02 0.02 0.03 0.03
0.00 0.00 0.00 0.00 0.01 0.01 0.02 0.03 0.03 0.06 0.06 0.03 0.01 0.01 0.02 0.01 0.01 0.01 0.01 0.01 0.01 0.01 0.00 0.00 0.00 0.00 0.01 0.01 0.01 0.00 0.00 0.01 0.01 0.01 0.01 0.02 0.01 0.01 0.01 0.01 0.01 0.01 0.01 0.01 0.02 0.02 0.04 0.03 0.03
0.00 0.00 0.00 0.00 0.01 0.01 0.02 0.02 0.02 0.04 0.05 0.04 0.02 0.01 0.01 0.01 0.01 0.00 0.01 0.01 0.01 0.01 0.00 0.00 0.00 0.01 0.03 0.02 0.02 0.01 0.00 0.00 0.01 0.01 0.01 0.02 0.02 0.02 0.01 0.01 0.02 0.02 0.01 0.01 0.02 0.03 0.05 0.04 0.03
0.00 0.00 0.00 0.00 0.00 0.00 0.01 0.02 0.02 0.03 0.05 0.05 0.03 0.02 0.01 0.01 0.00 0.00 0.00 0.01 0.00 0.00 0.00 0.00 0.00 0.00 0.01 0.01 0.01 0.02 0.01 0.00 0.01 0.01 0.01 0.01 0.01 0.02 0.03 0.03 0.03 0.03 0.03 0.02 0.03 0.03 0.03 0.04 0.03
0.00 0.00 0.00 0.00 0.00 0.00 0.01 0.03 0.04 0.03 0.04 0.05 0.03 0.01 0.01 0.01 0.01 0.01 0.00 0.00 0.00 0.00 0.00 0.00 0.00 0.00 0.01 0.01 0.00 0.01 0.00 0.00 0.01 0.01 0.01 0.01 0.01 0.02 0.03 0.02 0.03 0.04 0.03 0.02 0.03 0.03 0.03 0.03 0.04
0.00 0.01 0.01 0.00 0.01 0.01 0.02 0.02 0.02 0.02 0.04 0.05 0.02 0.01 0.01 0.01 0.01 0.01 0.01 0.01 0.01 0.00 0.00 0.00 0.00 0.00 0.01 0.00 0.01 0.01 0.01 0.01 0.02 0.02 0.01 0.01 0.01 0.01 0.02 0.03 0.04 0.04 0.02 0.02 0.03 0.04 0.03 0.03 0.03
0.00 0.00 0.00 0.00 0.01 0.01 0.01 0.01 0.01 0.01 0.02 0.02 0.01 0.01 0.01 0.02 0.01 0.01 0.01 0.01 0.01 0.01 0.00 0.00 0.01 0.01 0.01 0.00 0.01 0.01 0.01 0.01 0.02 0.02 0.02 0.02 0.01 0.02 0.03 0.03 0.04 0.04 0.03 0.04 0.04 0.04 0.03 0.02 0.01
0.00 0.00 0.00 0.00 0.01 0.01 0.01 0.01 0.00 0.00 0.01 0.01 0.01 0.01 0.01 0.02 0.02 0.01 0.01 0.01 0.01 0.01 0.01 0.01 0.01 0.01 0.02 0.01 0.01 0.01 0.02 0.02 0.02 0.02 0.02 0.03 0.03 0.03 0.03 0.03 0.03 0.04 0.05 0.06 0.05 0.04 0.03 0.02 0.01
0.00 0.00 0.00 0.01 0.01 0.01 0.01 0.00 0.00 0.00 0.01 0.01 0.00 0.00 0.01 0.01 0.01 0.01 0.02 0.02 0.01 0.02 0.02 0.02 0.02 0.01 0.02 0.03 0.04 0.04 0.03 0.04 0.04 0.04 0.04 0.03 0.03 0.03 0.02 0.01 0.02 0.03 0.06 0.07 0.05 0.03 0.02 0.02 0.01
0.00 0.00 0.00 0.00 0.00 0.00 0.00 0.00 0.00 0.00 0.01 0.01 0.00 0.00 0.00 0.00 0.01 0.01 0.02 0.03 0.03 0.03 0.03 0.03 0.02 0.02 0.03 0.05 0.08 0.09 0.10 0.09 0.07 0.05 0.04 0.03 0.03 0.03 0.02 0.02 0.02 0.03 0.05 0.04 0.03 0.03 0.03 0.02 0.02
0.01 0.00 0.00 0.00 0.00 0.00 0.00 0.00 0.00 0.00 0.00 0.00 0.01 0.00 0.00 0.01 0.01 0.02 0.03 0.05 0.07 0.04 0.03 0.03 0.02 0.02 0.03 0.07 0.11 0.16 0.15 0.12 0.05 0.03 0.02 0.01 0.02 0.03 0.04 0.02 0.02 0.02 0.02 0.02 0.01 0.02 0.01 0.01 0.01
0.01 0.01 0.00 0.00 0.00 0.00 0.00 0.00 0.01 0.01 0.00 0.00 0.01 0.00 0.00 0.01 0.01 0.02 0.03 0.03 0.02 0.02 0.02 0.02 0.03 0.03 0.04 0.08 0.08 0.07 0.05 0.04 0.02 0.02 0.02 0.01 0.02 0.03 0.04 0.03 0.03 0.02 0.02 0.02 0.01 0.01 0.01 0.00 0.00
0.01 0.01 0.00 0.00 0.00 0.00 0.00 0.00 0.00 0.00 0.00 0.00 0.00 0.00 0.00 0.01 0.01 0.01 0.01 0.01 0.01 0.01 0.01 0.02 0.03 0.03 0.03 0.03 0.03 0.03 0.03 0.03 0.03 0.03 0.03 0.03 0.03 0.04 0.06 0.05 0.06 0.05 0.04 0.03 0.03 0.02 0.01 0.01 0.01
0.00 0.01 0.01 0.01 0.00 0.00 0.00 0.00 0.00 0.00 0.00 0.00 0.00 0.01 0.00 0.01 0.01 0.02 0.01 0.02 0.01 0.01 0.01 0.01 0.02 0.02 0.03 0.03 0.03 0.04 0.04 0.05 0.05 0.06 0.06 0.06 0.06 0.08 0.09 0.09 0.09 0.08 0.06 0.05 0.04 0.03 0.02 0.01 0.01
0.00 0.01 0.01 0.01 0.01 0.00 0.00 0.00 0.00 0.00 0.00 0.00 0.01 0.01 0.01 0.01 0.01 0.01 0.01 0.01 0.01 0.01 0.01 0.01 0.01 0.01 0.02 0.03 0.03 0.03 0.04 0.04 0.03 0.05 0.05 0.07 0.08 0.09 0.12 0.15 0.14 0.12 0.10 0.09 0.07 0.04 0.03 0.02 0.02
0.00 0.00 0.01 0.01 0.01 0.00 0.00 0.00 0.00 0.00 0.01 0.01 0.00 0.01 0.01 0.01 0.01 0.01 0.01 0.01 0.01 0.01 0.01 0.01 0.01 0.01 0.01 0.02 0.02 0.02 0.03 0.04 0.04 0.04 0.04 0.04 0.05 0.07 0.11 0.13 0.14 0.12 0.09 0.09 0.08 0.07 0.05 0.03 0.03
MSLP
1007.16 1007.97 1008.88 1009.78 1010.54 1011.07 1011.32 1011.32 1011.14 1010.90 1010.70 1010.64 1010.74 1010.98 1011.30 1011.60 1011.78 1011.78 1011.60 1011.26 1010.86 1010.47 1010.19 1010.06 1010.09 1010.23 1010.41 1010.56 1010.63 1010.59 1010.45 1010.26 1010.06 1009.91 1009.81 1009.77 1009.76 1009.72 1009.64 1009.48 1009.26 1009.03 1008.82 1008.68 1008.67 1008.78 1009.02 1009.35 1009.73
1007.54 1008.47 1009.46 1010.37 1011.07 1011.50 1011.61 1011.45 1011.10 1010.71 1010.38 1010.21 1010.24 1010.45 1010.75 1011.07 1011.29 1011.36 1011.26 1011.01 1010.70 1010.40 1010.20 1010.13 1010.19 1010.36 1010.57 1010.74 1010.83 1010.82 1010.72 1010.57 1010.40 1010.28 1010.21 1010.20 1010.22 1010.24 1010.22 1010.15 1010.03 1009.88 1009.74 1009.65 1009.64 1009.71 1009.87 1010.10 1010.36
1008.04 1009.05 1010.06 1010.92 1011.53 1011.82 1011.79 1011.49 1011.02 1010.53 1010.12 1009.90 1009.89 1010.08 1010.38 1010.70 1010.96 1011.07 1011.02 1010.85 1010.61 1010.39 1010.24 1010.22 1010.32 1010.50 1010.73 1010.92 1011.04 1011.06 1011.00 1010.88 1010.75 1010.65 1010.59 1010.58 1010.61 1010.63 1010.64 1010.61 1010.54 1010.46 1010.38 1010.34 1010.34 1010.41 1010.53 1010.69 1010.89
1008.63 1009.65 1010.61 1011.38 1011.87 1012.03 1011.87 1011.47 1010.93 1010.39 1009.97 1009.75 1009.74 1009.93 1010.24 1010.57 1010.83 1010.97 1010.96 1010.84 1010.65 1010.47 1010.37 1010.37 1010.49 1010.68 1010.90 1011.10 1011.23 1011.28 1011.26 1011.18 1011.08 1011.00 1010.95 1010.93 1010.93 1010.94 1010.94 1010.92 1010.89 1010.84 1010.82 1010.82 1010.86 1010.94 1011.05 1011.18 1011.34
1009.22 1010.20 1011.06 1011.70 1012.04 1012.08 1011.83 1011.38 1010.83 1010.32 1009.95 1009.78 1009.81 1010.03 1010.34 1010.67 1010.93 1011.07 1011.08 1010.98 1010.82 1010.68 1010.60 1010.61 1010.72 1010.90 1011.10 1011.29 1011.42 1011.49 1011.49 1011.44 1011.38 1011.31 1011.27 1011.24 1011.22 1011.21 1011.19 1011.16 1011.14 1011.12 1011.13 1011.18 1011.25 1011.35 1011.47 1011.60 1011.73
1009.75 1010.62 1011.33 1011.81 1012.02 1011.94 1011.65 1011.20 1010.72 1010.30 1010.03 1009.94 1010.05 1010.31 1010.64 1010.96 1011.20 1011.33 1011.34 1011.25 1011.12 1011.00 1010.93 1010.93 1011.02 1011.17 1011.34 1011.49 1011.61 1011.67 1011.68 1011.66 1011.63 1011.59 1011.56 1011.53 1011.50 1011.47 1011.43 1011.39 1011.36 1011.36 1011.40 1011.47 1011.58 1011.70 1011.83 1011.95 1012.07
1010.11 1010.83 1011.37 1011.69 1011.77 1011.63 1011.33 1010.94 1010.57 1010.28 1010.15 1010.19 1010.38 1010.69 1011.02 1011.34 1011.56 1011.67 1011.68 1011.60 1011.49 1011.38 1011.32 1011.32 1011.38 1011.49 1011.60 1011.71 1011.79 1011.83 1011.85 1011.85 1011.84 1011.83 1011.82 1011.81 1011.78 1011.74 1011.69 1011.64 1011.61 1011.61 1011.65 1011.74 1011.86 1011.99 1012.12 1012.23 1012.33
1010.25 1010.81 1011.18 1011.36 1011.34 1011.17 1010.90 1010.62 1010.38 1010.26 1010.27 1010.44 1010.71 1011.06 1011.40 1011.70 1011.90 1012.00 1012.00 1011.94 1011.85 1011.77 1011.73 1011.73 1011.77 1011.83 1011.89 1011.94 1011.97 1011.98 1011.99 1011.99 1012.01 1012.04 1012.06 1012.07 1012.06 1012.03 1011.97 1011.91 1011.87 1011.86 1011.89 1011.97 1012.08 1012.21 1012.32 1012.42 1012.50
1010.16 1010.57 1010.80 1010.86 1010.79 1010.63 1010.43 1010.26 1010.17 1010.21 1010.37 1010.63 1010.98 1011.34 1011.68 1011.96 1012.14 1012.22 1012.24 1012.20 1012.15 1012.12 1012.10 1012.12 1012.14 1012.17 1012.18 1012.18 1012.15 1012.13 1012.11 1012.12 1012.15 1012.21 1012.27 1012.31 1012.33 1012.31 1012.26 1012.19 1012.13 1012.10 1012.11 1012.16 1012.25 1012.35 1012.45 1012.53 1012.59
1009.88 1010.18 1010.31 1010.31 1010.22 1010.10 1009.98 1009.94 1009.99 1010.16 1010.42 1010.77 1011.15 1011.51 1011.83 1012.07 1012.23 1012.31 1012.34 1012.34 1012.35 1012.36 1012.39 1012.43 1012.46 1012.47 1012.45 1012.40 1012.33 1012.27 1012.23 1012.23 1012.27 1012.35 1012.43 1012.51 1012.56 1012.56 1012.52 1012.45 1012.38 1012.32 1012.29 1012.31 1012.36 1012.42 1012.50 1012.56 1012.62
1009.51 1009.73 1009.82 1009.80 1009.74 1009.67 1009.66 1009.72 1009.88 1010.14 1010.48 1010.85 1011.23 1011.57 1011.85 1012.05 1012.19 1012.27 1012.32 1012.36 1012.42 1012.49 1012.57 1012.65 1012.70 1012.70 1012.66 1012.58 1012.48 1012.39 1012.32 1012.31 1012.36 1012.44 1012.55 1012.66 1012.73 1012.76 1012.74 1012.67 1012.58 1012.50 1012.44 1012.41 1012.42 1012.46 1012.50 1012.56 1012.62
1009.14 1009.36 1009.44 1009.45 1009.44 1009.44 1009.51 1009.66 1009.89 1010.20 1010.55 1010.92 1011.26 1011.55 1011.78 1011.94 1012.04 1012.12 1012.19 1012.27 1012.38 1012.50 1012.63 1012.75 1012.82 1012.84 1012.80 1012.71 1012.60 1012.48 1012.40 1012.37 1012.41 1012.50 1012.62 1012.74 1012.84 1012.89 1012.88 1012.83 1012.74 1012.64 1012.55 1012.49 1012.47 1012.48 1012.52 1012.58 1012.65
1008.92 1009.15 1009.27 1009.32 1009.37 1009.44 1009.58 1009.78 1010.04 1010.35 1010.68 1010.99 1011.27 1011.50 1011.66 1011.78 1011.86 1011.93 1012.01 1012.11 1012.25 1012.41 1012.57 1012.72 1012.83 1012.87 1012.85 1012.77 1012.66 1012.54 1012.45 1012.40 1012.42 1012.50 1012.62 1012.75 1012.87 1012.94 1012.97 1012.93 1012.86 1012.76 1012.66 1012.59 1012.55 1012.54 1012.58 1012.65 1012.74
1008.90 1009.17 1009.33 1009.44 1009.55 1009.67 1009.84 1010.06 1010.31 1010.59 1010.85 1011.10 1011.30 1011.45 1011.56 1011.64 1011.69 1011.75 1011.83 1011.93 1012.08 1012.25 1012.42 1012.59 1012.72 1012.79 1012.80 1012.75 1012.66 1012.56 1012.46 1012.41 1012.41 1012.47 1012.57 1012.70 1012.83 1012.93 1012.98 1012.99 1012.95 1012.87 1012.79 1012.72 1012.67 1012.67 1012.71 1012.80 1012.91
1009.12 1009.41 1009.61 1009.76 1009.91 1010.07 1010.25 1010.45 1010.66 1010.87 1011.05 1011.21 1011.33 1011.42 1011.47 1011.52 1011.56 1011.60 1011.67 1011.76 1011.89 1012.04 1012.21 1012.38 1012.52 1012.62 1012.68 1012.67 1012.62 1012.54 1012.46 1012.40 1012.38 1012.41 1012.49 1012.60 1012.73 1012.86 1012.95 1013.01 1013.02 1012.99 1012.94 1012.89 1012.86 1012.87 1012.92 1013.02 1013.15
1009.50 1009.80 1010.02 1010.20 1010.38 1010.55 1010.72 1010.88 1011.02 1011.14 1011.22 1011.29 1011.33 1011.36 1011.39 1011.42 1011.45 1011.49 1011.54 1011.62 1011.71 1011.83 1011.97 1012.12 1012.27 1012.40 1012.49 1012.54 1012.55 1012.51 1012.46 1012.39 1012.35 1012.35 1012.39 1012.49 1012.61 1012.75 1012.89 1013.00 1013.08 1013.11 1013.12 1013.11 1013.10 1013.12 1013.18 1013.29 1013.43
1009.95 1010.23 1010.46 1010.67 1010.86 1011.03 1011.18 1011.29 1011.34 1011.35 1011.33 1011.30 1011.27 1011.25 1011.26 1011.29 1011.34 1011.38 1011.43 1011.49 1011.54 1011.62 1011.72 1011.84 1011.99 1012.14 1012.29 1012.41 1012.48 1012.50 1012.47 1012.41 1012.35 1012.32 1012.32 1012.38 1012.50 1012.65 1012.82 1012.99 1013.13 1013.23 1013.30 1013.34 1013.37 1013.40 1013.47 1013.57 1013.70
1010.34 1010.60 1010.84 1011.08 1011.30 1011.47 1011.59 1011.63 1011.59 1011.48 1011.34 1011.20 1011.10 1011.05 1011.05 1011.10 1011.17 1011.25 1011.31 1011.36 1011.39 1011.42 1011.48 1011.58 1011.72 1011.90 1012.09 1012.28 1012.42 1012.50 1012.51 1012.47 1012.40 1012.33 1012.30 1012.32 1012.41 1012.56 1012.76 1012.98 1013.18 1013.35 1013.48 1013.56 1013.62 1013.67 1013.74 1013.83 1013.95
1010.57 1010.83 1011.11 1011.40 1011.67 1011.87 1011.96 1011.93 1011.77 1011.53 1011.26 1011.00 1010.81 1010.72 1010.72 1010.80 1010.93 1011.05 1011.15 1011.21 1011.23 1011.24 1011.27 1011.34 1011.48 1011.68 1011.92 1012.17 1012.38 1012.53 1012.60 1012.58 1012.50 1012.41 1012.33 1012.31 1012.37 1012.51 1012.72 1012.97 1013.22 1013.45 1013.63 1013.75 1013.84 1013.90 1013.96 1014.04 1014.14
1010.60 1010.91 1011.27 1011.66 1012.01 1012.24 1012.32 1012.22 1011.94 1011.54 1011.10 1010.71 1010.41 1010.26 1010.26 1010.38 1010.57 1010.77 1010.93 1011.03 1011.07 1011.08 1011.09 1011.15 1011.28 1011.50 1011.78 1012.09 1012.37 1012.58 1012.70 1012.72 1012.65 1012.53 1012.42 1012.36 1012.38 1012.50 1012.71 1012.97 1013.26 1013.52 1013.73 1013.89 1013.99 1014.06 1014.11 1014.18 1014.26
1010.46 1010.87 1011.38 1011.91 1012.38 1012.68 1012.75 1012.56 1012.14 1011.56 1010.93 1010.36 1009.93 1009.71 1009.69 1009.85 1010.11 1010.40 1010.65 1010.82 1010.90 1010.93 1010.94 1010.99 1011.12 1011.35 1011.66 1012.00 1012.34 1012.62 1012.80 1012.85 1012.80 1012.68 1012.54 1012.45 1012.44 1012.53 1012.71 1012.97 1013.26 1013.54 1013.78 1013.95 1014.06 1014.13 1014.17 1014.23 1014.31
1010.24 1010.82 1011.53 1012.25 1012.86 1013.23 1013.29 1013.00 1012.42 1011.63 1010.78 1010.00 1009.42 1009.09 1009.04 1009.23 1009.56 1009.95 1010.30 1010.57 1010.72 1010.78 1010.81 1010.85 1010.97 1011.20 1011.51 1011.89 1012.27 1012.60 1012.83 1012.93 1012.90 1012.80 1012.66 1012.55 1012.50 1012.56 1012.72 1012.96 1013.24 1013.51 1013.75 1013.92 1014.04 1014.10 1014.14 1014.19 1014.27
1010.09 1010.88 1011.82 1012.74 1013.49 1013.93 1013.95 1013.55 1012.78 1011.76 1010.66 1009.67 1008.90 1008.46 1008.37 1008.56 1008.97 1009.46 1009.92 1010.28 1010.51 1010.62 1010.67 1010.71 1010.82 1011.02 1011.33 1011.71 1012.12 1012.49 1012.76 1012.91 1012.93 1012.85 1012.73 1012.61 1012.55 1012.58 1012.71 1012.92 1013.17 1013.42 1013.64 1013.81 1013.91 1013.97 1014.01 1014.06 1014.15
1010.13 1011.14 1012.29 1013.39 1014.26 1014.74 1014.71 1014.17 1013.20 1011.94 1010.59 1009.36 1008.42 1007.85 1007.70 1007.90 1008.36 1008.94 1009.50 1009.96 1010.27 1010.44 1010.50 1010.54 1010.62 1010.80 1011.08 1011.45 1011.86 1012.26 1012.57 1012.77 1012.84 1012.81 1012.71 1012.61 1012.55 1012.56 1012.66 1012.83 1013.05 1013.27 1013.47 1013.61 1013.70 1013.76 1013.79 1013.85 1013.95
1010.43 1011.63 1012.95 1014.18 1015.11 1015.58 1015.46 1014.77 1013.60 1012.10 1010.53 1009.09 1007.97 1007.29 1007.07 1007.27 1007.77 1008.41 1009.06 1009.61 1009.99 1010.20 1010.29 1010.32 1010.37 1010.51 1010.76 1011.10 1011.51 1011.91 1012.26 1012.50 1012.63 1012.65 1012.60 1012.53 1012.47 1012.48 1012.56 1012.70 1012.88 1013.07 1013.24 1013.36 1013.43 1013.48 1013.51 1013.57 1013.68
1010.99 1012.30 1013.72 1015.00 1015.93 1016.33 1016.10 1015.25 1013.89 1012.20 1010.43 1008.82 1007.57 1006.79 1006.52 1006.69 1007.21 1007.90 1008.61 1009.21 1009.65 1009.90 1010.00 1010.02 1010.06 1010.16 1010.37 1010.69 1011.08 1011.48 1011.85 1012.14 1012.32 1012.39 1012.40 1012.36 1012.33 1012.35 1012.42 1012.54 1012.69 1012.85 1012.98 1013.08 1013.14 1013.18 1013.21 1013.27 1013.38
1011.72 1013.07 1014.48 1015.73 1016.58 1016.86 1016.50 1015.51 1014.00 1012.17 1010.27 1008.56 1007.22 1006.37 1006.05 1006.20 1006.71 1007.41 1008.14 1008.77 1009.23 1009.50 1009.62 1009.66 1009.68 1009.76 1009.95 1010.24 1010.62 1011.02 1011.41 1011.73 1011.95 1012.08 1012.13 1012.14 1012.14 1012.17 1012.25 1012.36 1012.49 1012.63 1012.75 1012.83 1012.88 1012.91 1012.94 1013.00 1013.11
1012.51 1013.80 1015.11 1016.23 1016.94 1017.09 1016.59 1015.49 1013.89 1011.99 1010.06 1008.30 1006.93 1006.05 1005.69 1005.81 1006.27 1006.94 1007.64 1008.27 1008.74 1009.02 1009.16 1009.21 1009.25 1009.34 1009.52 1009.81 1010.17 1010.58 1010.97 1011.31 1011.57 1011.74 1011.83 1011.89 1011.93 1011.99 1012.07 1012.19 1012.33 1012.47 1012.58 1012.66 1012.71 1012.74 1012.76 1012.82 1012.92
1013.22 1014.37 1015.50 1016.43 1016.96 1016.95 1016.35 1015.18 1013.57 1011.70 1009.81 1008.10 1006.75 1005.86 1005.47 1005.53 1005.91 1006.50 1007.14 1007.71 1008.15 1008.45 1008.61 1008.70 1008.77 1008.90 1009.11 1009.41 1009.78 1010.19 1010.59 1010.94 1011.21 1011.41 1011.54 1011.63 1011.71 1011.80 1011.92 1012.06 1012.22 1012.38 1012.51 1012.60 1012.66 1012.70 1012.73 1012.78 1012.87
1013.76 1014.70 1015.61 1016.32 1016.66 1016.51 1015.84 1014.68 1013.13 1011.36 1009.58 1007.98 1006.70 1005.83 1005.40 1005.37 1005.64 1006.10 1006.62 1007.10 1007.50 1007.78 1007.97 1008.11 1008.26 1008.45 1008.72 1009.06 1009.46 1009.87 1010.27 1010.62 1010.89 1011.10 1011.25 1011.38 1011.50 1011.63 1011.79 1011.97 1012.17 1012.36 1012.53 1012.66 1012.75 1012.81 1012.85 1012.90 1012.98
Thickness
5809 5808 5805 5795 5777 5760 5757 5771 5782 5782 5784 5792 5795 5790 5781 5775 5770 5767 5787 5796 5795 5794 5792 5791 5790 5789 5789 5789 5790 5790 5789 5788 5788 5787 5786 5786 5785 5784 5783 5782 5781 5780 5779 5778 5777 5776 5775 5774 5774
5811 5808 5800 5788 5766 5748 5757 5776 5780 5785 5793 5798 5797 5792 5784 5780 5786 5787 5790 5795 5796 5794 5792 5791 5790 5789 5788 5788 5789 5789 5788 5788 5787 5786 5785 5784 5784 5783 5782 5781 5780 5779 5778 5777 5776 5775 5774 5773 5772
5813 5810 5793 5779 5764 5754 5765 5782 5786 5794 5801 5800 5794 5792 5786 5782 5788 5790 5794 5797 5796 5794 5792 5791 5790 5788 5788 5788 5788 5788 5788 5787 5786 5786 5785 5784 5783 5781 5780 5779 5778 5777 5776 5775 5775 5773 5773 5772 5771
5812 5801 5791 5775 5766 5774 5781 5789 5795 5795 5799 5801 5795 5786 5790 5796 5795 5796 5798 5797 5795 5793 5792 5791 5790 5789 5788 5787 5787 5787 5787 5786 5786 5785 5784 5783 5782 5781 5779 5778 5777 5775 5774 5773 5773 5772 5771 5770 5770
5810 5794 5778 5767 5772 5785 5795 5800 5800 5795 5795 5797 5794 5783 5783 5795 5800 5799 5798 5797 5794 5792 5791 5790 5789 5789 5788 5787 5787 5786 5786 5785 5785 5784 5783 5783 5782 5780 5779 5777 5775 5774 5773 5772 5771 5771 5770 5769 5769
5800 5790 5768 5761 5774 5790 5798 5803 5801 5796 5795 5797 5793 5783 5782 5794 5797 5797 5797 5795 5794 5793 5791 5790 5789 5788 5787 5787 5786 5785 5785 5784 5784 5783 5782 5781 5781 5780 5778 5776 5775 5773 5772 5771 5770 5769 5769 5768 5767
5795 5783 5771 5772 5775 5785 5797 5805 5800 5796 5795 5797 5798 5783 5784 5791 5796 5797 5795 5794 5793 5792 5790 5789 5788 5787 5786 5786 5785 5785 5784 5783 5783 5782 5781 5780 5779 5778 5777 5776 5774 5773 5772 5770 5769 5768 5768 5767 5766
5806 5789 5778 5776 5778 5784 5801 5805 5806 5802 5799 5808 5804 5786 5782 5792 5797 5796 5794 5792 5791 5790 5789 5788 5788 5787 5786 5785 5785 5784 5784 5783 5782 5781 5780 5779 5779 5777 5776 5775 5773 5772 5771 5770 5769 5768 5768 5767 5766
5812 5784 5773 5781 5784 5791 5804 5802 5808 5814 5807 5807 5807 5801 5800 5801 5797 5793 5789 5787 5787 5788 5788 5788 5787 5787 5786 5785 5785 5784 5783 5782 5781 5780 5779 5778 5777 5776 5775 5774 5773 5772 5771 5770 5769 5768 5767 5766 5765
5802 5781 5788 5802 5804 5802 5805 5805 5807 5805 5799 5799 5800 5803 5804 5799 5795 5790 5786 5784 5784 5786 5787 5787 5787 5786 5786 5785 5784 5784 5783 5782 5781 5779 5778 5777 5776 5775 5774 5773 5772 5771 5770 5769 5768 5767 5766 5765 5764
5803 5795 5805 5812 5815 5813 5807 5808 5812 5802 5793 5798 5798 5799 5799 5797 5793 5790 5788 5787 5787 5788 5788 5788 5787 5786 5785 5785 5784 5783 5782 5781 5780 5778 5777 5776 5775 5774 5773 5772 5771 5770 5769 5768 5767 5766 5765 5764 5763
5806 5809 5815 5817 5821 5816 5811 5810 5807 5806 5807 5816 5812 5808 5802 5796 5793 5792 5790 5790 5790 5789 5789 5789 5788 5786 5785 5784 5783 5782 5781 5780 5779 5778 5776 5775 5774 5773 5771 5770 5769 5769 5768 5767 5766 5765 5764 5764 5763
5808 5812 5819 5822 5822 5819 5816 5811 5809 5810 5817 5819 5814 5807 5802 5798 5797 5796 5796 5794 5792 5791 5790 5790 5789 5787 5786 5784 5783 5782 5781 5779 5778 5777 5776 5775 5773 5771 5770 5769 5768 5767 5766 5766 5764 5764 5763 5762 5761
5814 5816 5818 5821 5821 5821 5813 5811 5810 5811 5818 5814 5810 5805 5803 5801 5799 5797 5795 5794 5793 5793 5792 5792 5790 5788 5786 5784 5783 5782 5781 5779 5778 5777 5775 5774 5772 5771 5770 5768 5767 5766 5766 5765 5763 5762 5761 5760 5759
5818 5810 5810 5816 5819 5818 5814 5801 5807 5815 5816 5809 5807 5806 5804 5803 5802 5800 5799 5797 5797 5796 5795 5793 5792 5789 5787 5785 5783 5782 5781 5779 5777 5776 5775 5774 5773 5771 5770 5768 5766 5765 5765 5763 5762 5761 5760 5758 5757
5809 5797 5789 5807 5815 5817 5805 5788 5809 5816 5811 5805 5805 5805 5804 5804 5804 5805 5804 5802 5801 5798 5796 5795 5794 5791 5788 5786 5784 5783 5781 5779 5778 5776 5775 5774 5773 5771 5769 5767 5766 5765 5763 5762 5760 5759 5756 5755 5754
5789 5779 5784 5798 5813 5812 5802 5793 5809 5816 5810 5804 5804 5805 5804 5803 5805 5807 5807 5805 5803 5801 5798 5795 5794 5792 5790 5787 5784 5783 5781 5779 5778 5776 5775 5774 5773 5771 5769 5767 5765 5763 5761 5760 5759 5757 5755 5752 5751
5777 5780 5784 5789 5805 5805 5796 5796 5807 5813 5810 5806 5805 5805 5804 5804 5806 5809 5809 5808 5805 5803 5800 5797 5795 5793 5791 5788 5784 5782 5780 5779 5778 5776 5775 5774 5772 5771 5768 5766 5764 5762 5760 5757 5756 5754 5752 5750 5749
5791 5786 5783 5793 5808 5801 5794 5796 5803 5809 5808 5805 5803 5804 5804 5806 5811 5811 5811 5809 5806 5802 5800 5797 5795 5793 5790 5787 5783 5779 5777 5777 5776 5775 5774 5773 5772 5770 5768 5765 5763 5760 5757 5755 5753 5751 5749 5746 5746
5791 5783 5784 5793 5806 5801 5792 5794 5804 5809 5809 5809 5808 5807 5808 5808 5808 5809 5809 5809 5806 5803 5800 5798 5796 5794 5791 5789 5786 5782 5779 5777 5776 5775 5773 5772 5771 5769 5767 5764 5761 5758 5755 5752 5750 5748 5745 5743 5742
5788 5784 5787 5787 5795 5797 5790 5785 5795 5806 5811 5811 5812 5812 5812 5811 5808 5808 5808 5807 5805 5802 5800 5800 5797 5794 5791 5789 5785 5782 5778 5775 5773 5771 5771 5770 5769 5767 5765 5763 5760 5757 5754 5750 5747 5745 5742 5739 5737
5781 5799 5797 5791 5778 5769 5779 5758 5783 5794 5798 5804 5808 5809 5810 5812 5811 5809 5808 5807 5805 5805 5803 5800 5796 5793 5791 5788 5784 5780 5775 5771 5771 5770 5770 5769 5768 5765 5763 5761 5759 5756 5752 5749 5746 5744 5741 5738 5734
5793 5803 5795 5787 5774 5764 5769 5758 5771 5787 5788 5798 5805 5809 5812 5813 5814 5811 5810 5809 5808 5806 5803 5800 5796 5792 5790 5788 5784 5780 5776 5773 5771 5770 5768 5767 5766 5764 5762 5760 5757 5754 5751 5747 5745 5742 5739 5737 5733
5803 5791 5781 5768 5758 5746 5761 5755 5761 5777 5790 5799 5807 5812 5813 5814 5814 5813 5812 5810 5807 5805 5802 5799 5795 5791 5789 5787 5783 5780 5776 5773 5769 5767 5765 5764 5763 5761 5760 5757 5754 5751 5748 5746 5743 5740 5737 5734 5731
5793 5768 5744 5741 5731 5737 5758 5755 5764 5794 5804 5807 5808 5811 5813 5813 5812 5810 5809 5807 5805 5803 5800 5798 5794 5791 5789 5786 5782 5780 5777 5773 5770 5767 5765 5762 5760 5758 5756 5754 5751 5749 5746 5744 5740 5737 5734 5731 5728
5782 5771 5744 5731 5727 5736 5752 5751 5777 5803 5810 5813 5812 5812 5812 5810 5810 5810 5808 5805 5803 5801 5798 5796 5793 5790 5788 5784 5782 5780 5777 5773 5770 5768 5765 5762 5759 5757 5755 5751 5748 5746 5744 5741 5738 5734 5731 5728 5726
5776 5767 5770 5744 5737 5732 5741 5758 5782 5803 5804 5805 5806 5806 5807 5807 5808 5807 5806 5804 5802 5800 5798 5796 5793 5790 5787 5784 5781 5779 5776 5772 5769 5767 5765 5761 5758 5756 5752 5749 5745 5742 5740 5737 5734 5730 5727 5725 5722
5789 5772 5753 5740 5725 5723 5738 5748 5761 5784 5791 5796 5799 5800 5802 5803 5804 5804 5804 5802 5801 5800 5798 5795 5793 5790 5787 5783 5781 5778 5776 5773 5769 5765 5762 5759 5755 5752 5749 5745 5741 5738 5735 5732 5729 5726 5723 5720 5717
5773 5765 5752 5739 5738 5724 5722 5744 5785 5787 5793 5794 5797 5799 5799 5799 5800 5799 5799 5799 5797 5796 5795 5792 5789 5786 5783 5780 5778 5775 5773 5770 5766 5762 5759 5755 5752 5748 5745 5741 5738 5734 5731 5728 5724 5721 5718 5714 5712
5781 5770 5754 5743 5735 5731 5729 5748 5795 5793 5794 5793 5794 5795 5796 5797 5796 5796 5794 5793 5791 5789 5788 5787 5785 5783 5780 5778 5775 5771 5769 5766 5762 5758 5755 5752 5748 5745 5741 5738 5734 5730 5727 5723 5720 5717 5713 5710 5707